www.pogodaiklimat.ru

Погода и климат >> Архив погоды >> Австралия >> Южная Австралия >> Марри


ПОГОДА в Марри

  • Прогноз погоды в Марри
  • Монитор погоды в Марри

АРХИВ ПОГОДЫ в Марри

Время (UTC), дата Ветер
(напр.,м/с)
 
Видим.   Явления Облачность Т
(С)
Тd
(С)
f
(%)
Тe
(С)
Тes
(С)
Комфортность P
(гПа)
Po
(гПа)
Тmin
(С)
Tmax
(С)
R
(мм)
R24
(мм)
S
(см)
19 14.03 Ю 5 н/о н/о +19.9 +4.0 35 +20 +20 1013.4 1007.6
20 14.03 Ю 5 н/о н/о +18.9 +5.0 40 +19 +19 1014.1 1008.3
21 14.03 ЮВ 5 н/о н/о +17.2 +4.9 44 +17 +17 1014.9 1009.1
22 14.03 Ю 4 н/о н/о +20.8 +5.6 37 +22 +22 комфорт 1015.6 1009.8
23 14.03 ЮВ 5 н/о н/о +25.6 +4.1 25 +25 +25 комфорт 1015.9 1010.1
00 15.03 В 5 н/о н/о +27.8 +2.1 19 +26 +26 жарко 1016.1 1010.3
01 15.03 СВ 6 н/о н/о +29.8 +0.4 15 +27 +27 жарко 1015.8 1010.0
02 15.03 В 3 н/о н/о +31.7 -0.1 13 +29 +29 жарко 1015.3 1009.5
03 15.03 СЗ 2 н/о н/о +32.9 -1.4 11 +29 +29 жарко 1014.2 1008.4
04 15.03 Ю 2 н/о н/о +33.4 -2.3 10 +30 +30 жарко 1013.2 1007.4
05 15.03 ЮВ 3 н/о н/о +34.0 -1.9 10 +30 +30 жарко 1012.3 1006.5
06 15.03 С 2 н/о н/о +35.0 -2.6 9 +31 +31 жарко 1011.5 1005.7
07 15.03 Ю 7 н/о н/о +35.1 -1.1 10 +31 +31 жарко 1011.3 1005.5
08 15.03 ЮЗ 7 н/о н/о +33.9 -0.7 11 +30 +30 жарко 1011.6 1005.8
09 15.03 Ю 7 н/о н/о +32.1 -2.0 11 +29 +29 жарко 1012.2 1006.4
10 15.03 Ю 5 н/о н/о +29.7 -2.7 12 +27 +27 жарко 1012.9 1007.1
11 15.03 Ю 4 н/о н/о +27.4 -4.5 12 +24 +24 комфорт 1013.8 1008.0
12 15.03 ЮВ 6 н/о н/о +26.3 -4.3 13 +24 +24 комфорт 1014.3 1008.5
13 15.03 В 4 н/о н/о +25.0 -1.7 17 +23 +23 комфорт 1014.3 1008.5 +35.8
14 15.03 В 4 н/о н/о +23.9 -1.1 19 +23 +23 комфорт 1014.1 1008.3
15 15.03 Ю 4 н/о н/о +22.2 -1.1 21 +21 +21 комфорт 1014.0 1008.2
16 15.03 ЮВ 5 н/о н/о +20.4 -2.0 22 +20 +20 1013.9 1008.1
17 15.03 Ю 5 н/о н/о +19.6 -2.1 23 +19 +19 1013.9 1008.1
18 15.03 Ю 4 н/о н/о +18.9 -2.1 24 +19 +19 1013.8 1008.0
19 15.03 Ю 5 н/о н/о +18.9 -1.5 25 +19 +19 1014.0 1008.2
20 15.03 Ю 4 н/о н/о +18.4 -0.9 27 +18 +18 1014.5 1008.7
21 15.03 Ю 5 н/о н/о +18.6 -0.7 27 +18 +18 1014.9 1009.1
22 15.03 Ю 5 н/о н/о +21.8 +0.4 24 +21 +21 комфорт 1015.3 1009.5
23 15.03 ЮВ 6 н/о н/о +25.3 +0.8 20 +24 +24 комфорт 1015.3 1009.5
00 16.03 В 6 н/о н/о +28.8 -0.4 15 +26 +26 жарко 1015.4 1009.6
01 16.03 В 6 н/о н/о +30.4 -1.1 13 +27 +27 жарко 1015.2 1009.4 +18.1
02 16.03 В 4 н/о н/о +32.6 -0.5 12 +29 +29 жарко 1014.7 1008.9
03 16.03 ЮВ 5 н/о н/о +32.6 -1.7 11 +29 +29 жарко 1013.8 1008.0
04 16.03 ЮЗ 3 н/о н/о +33.5 -2.3 10 +30 +30 жарко 1013.0 1007.2
05 16.03 Ю 5 н/о н/о +33.7 -2.1 10 +30 +30 жарко 1012.3 1006.5
06 16.03 Ю 5 н/о н/о +34.5 -2.9 9 +31 +31 жарко 1011.8 1006.0
07 16.03 Ю 7 н/о н/о +34.0 -3.3 9 +30 +30 жарко 1011.7 1005.9
08 16.03 Ю 5 н/о н/о +33.8 -3.5 9 +30 +30 жарко 1011.9 1006.1
09 16.03 Ю 5 н/о н/о +32.4 -3.1 10 +29 +29 жарко 1012.4 1006.6
10 16.03 ЮЗ 5 н/о н/о +30.1 -2.4 12 +27 +27 жарко 1013.2 1007.4
11 16.03 ЮВ 6 н/о н/о +28.5 -1.6 14 +26 +26 жарко 1014.3 1008.5
12 16.03 0 н/о н/о +26.0 -3.5 14 1014.6 1008.8
13 16.03 Ю 3 н/о н/о +24.2 -3.2 16 +22 +22 комфорт 1014.6 1008.8 +35.8
14 16.03 Ю 4 н/о н/о +22.5 -3.0 18 +21 +21 комфорт 1014.1 1008.3
15 16.03 ЮВ 3 н/о н/о +21.7 -4.4 17 +21 +21 комфорт 1013.4 1007.6
16 16.03 штиль 0 н/о н/о +19.9 -3.7 20 +20 +20 1013.1 1007.3
17 16.03 ЮВ 3 н/о н/о +19.4 -4.8 19 +20 +20 1012.8 1007.0
18 16.03 Ю 3 н/о н/о +18.4 -4.3 21 +19 +19 1012.9 1007.1
19 16.03 Ю 5 н/о н/о +21.7 -0.9 22 +21 +21 комфорт 1013.1 1007.3
20 16.03 Ю 6 н/о н/о +22.4 -0.3 22 +22 +22 комфорт 1013.5 1007.7
21 16.03 ЮВ 5 н/о н/о +18.8 -2.2 24 +19 +19 1014.2 1008.4
22 16.03 Ю 5 н/о н/о +24.8 +1.7 22 +24 +24 комфорт 1014.9 1009.1
23 16.03 ЮВ 5 н/о н/о +27.4 +3.8 22 +26 +26 жарко 1015.4 1009.6
00 17.03 ЮВ 5 н/о н/о +29.8 +5.8 22 +28 +28 жарко 1015.5 1009.7
01 17.03 В 5 н/о н/о +32.0 +4.7 18 +30 +30 жарко 1015.3 1009.5
02 17.03 ЮВ 3 н/о н/о +34.3 +4.0 15 +32 +32 жарко 1014.5 1008.7
03 17.03 ЮЗ 6 н/о н/о +34.7 +1.1 12 +31 +31 жарко 1013.7 1007.9
04 17.03 ЮВ 4 н/о н/о +34.5 +1.0 12 +31 +31 жарко 1012.7 1006.9
05 17.03 Ю 5 н/о н/о +36.1 -0.3 10 +32 +32 жарко 1012.2 1006.4
06 17.03 Ю 4 н/о н/о +35.6 -0.7 10 +32 +32 жарко 1011.8 1006.0
07 17.03 Ю 6 н/о н/о +36.3 -1.6 9 +32 +32 жарко 1011.6 1005.8
08 17.03 Ю 5 н/о н/о +35.2 -1.0 10 +31 +31 жарко 1011.8 1006.0
09 17.03 Ю 7 н/о н/о +33.6 +0.3 12 +30 +30 жарко 1012.2 1006.4
10 17.03 Ю 5 н/о н/о +31.3 -0.4 13 +28 +28 жарко 1012.9 1007.1
11 17.03 Ю 4 н/о н/о +29.0 -0.2 15 +26 +26 жарко 1013.7 1007.9
12 17.03 Ю 5 н/о н/о +27.7 -1.3 15 +25 +25 комфорт 1014.1 1008.3
13 17.03 ЮВ 5 н/о н/о +25.6 -2.1 16 +24 +24 комфорт 1014.3 1008.5 +37.1
14 17.03 ЮВ 4 н/о н/о +24.8 -1.9 17 +23 +23 комфорт 1014.0 1008.2
15 17.03 Ю 4 н/о н/о +24.1 -0.9 19 +23 +23 комфорт 1013.6 1007.8
16 17.03 Ю 3 н/о н/о +23.2 -1.0 20 +22 +22 комфорт 1013.2 1007.4
17 17.03 Ю 4 н/о н/о +21.7 -1.6 21 +21 +21 комфорт 1013.2 1007.4
18 17.03 Ю 4 н/о н/о +22.6 -0.2 22 +22 +22 комфорт 1013.2 1007.4
19 17.03 Ю 4 н/о н/о +22.7 +0.5 23 +22 +22 комфорт 1013.4 1007.6
20 17.03 ЮВ 4 н/о н/о +21.6 -0.4 23 +21 +21 комфорт 1014.2 1008.4
21 17.03 ЮВ 5 н/о н/о +21.7 +0.3 24 +21 +21 комфорт 1014.7 1008.9
22 17.03 ЮВ 0 н/о н/о +23.9 +1.5 23 +25 +25 комфорт 1015.1 1009.3
23 17.03 ЮВ 5 н/о н/о +27.9 +3.6 21 +26 +26 жарко 1015.3 1009.5
00 18.03 В 5 н/о н/о +31.7 +7.4 22 +30 +30 жарко 1015.6 1009.8
01 18.03 В 4 н/о н/о +33.8 +8.4 21 +32 +32 жарко 1015.4 1009.6
02 18.03 С 3 н/о н/о +34.8 +5.3 16 +32 +32 жарко 1014.6 1008.8
03 18.03 ЮВ 5 н/о н/о +35.6 +4.0 14 +33 +33 жарко 1013.5 1007.7
04 18.03 ЮВ 4 н/о н/о +35.8 +5.1 15 +33 +33 жарко 1012.8 1007.0
05 18.03 Ю 4 н/о н/о +36.5 +3.7 13 +33 +33 жарко 1011.5 1005.7
06 18.03 Ю 4 н/о н/о +36.4 +3.6 13 +33 +33 жарко 1010.9 1005.1
07 18.03 Ю 5 н/о н/о +37.2 +3.1 12 +34 +34 очень
жарко
1010.5 1004.7
08 18.03 Ю 3 н/о н/о +36.3 +2.4 12 +33 +33 жарко 1010.5 1004.7
09 18.03 Ю 4 н/о н/о +35.0 +1.4 12 +32 +32 жарко 1010.8 1005.0
10 18.03 Ю 6 н/о н/о +33.1 +1.0 13 +30 +30 жарко 1011.5 1005.7
11 18.03 ЮВ 4 н/о н/о +30.3 +0.8 15 +28 +28 жарко 1012.7 1006.9
12 18.03 ЮВ 5 н/о н/о +29.2 +0.8 16 +27 +27 жарко 1013.5 1007.7
13 18.03 В 5 н/о н/о +29.0 +3.1 19 +27 +27 жарко 1013.2 1007.4
14 18.03 В 4 н/о н/о +27.3 +3.7 22 +26 +26 жарко 1012.8 1007.0
15 18.03 ЮВ 3 н/о н/о +27.0 +4.7 24 +26 +26 жарко 1012.2 1006.4
16 18.03 ЮВ 4 н/о н/о +25.3 +3.9 25 +24 +24 комфорт 1011.9 1006.1
17 18.03 ЮВ 4 н/о н/о +23.9 +3.2 26 +23 +23 комфорт 1011.6 1005.8
18 18.03 Ю 3 н/о н/о +22.7 +2.8 27 +22 +22 комфорт 1011.9 1006.1
19 18.03 Ю 3 н/о н/о +22.4 +2.5 27 +22 +22 комфорт 1012.2 1006.4
20 18.03 ЮВ 3 н/о н/о +21.1 +1.9 28 +21 +21 комфорт 1012.9 1007.1
21 18.03 ЮВ 4 н/о н/о +21.0 +1.8 28 +21 +21 комфорт 1013.6 1007.8
22 18.03 ЮВ 4 н/о н/о +24.7 +3.4 25 +24 +24 комфорт 1014.1 1008.3
23 18.03 ЮВ 4 н/о н/о +29.0 +5.1 22 +28 +28 жарко 1014.3 1008.5
00 19.03 СВ 4 н/о н/о +32.3 +5.0 18 +30 +30 жарко 1014.4 1008.6
01 19.03 СВ 4 н/о н/о +34.5 +5.0 16 +32 +32 жарко 1014.1 1008.3
02 19.03 СВ 2 н/о н/о +35.7 +4.1 14 +33 +33 жарко 1013.4 1007.6
03 19.03 З 4 н/о н/о +36.0 +3.3 13 +33 +33 жарко 1012.3 1006.5
04 19.03 С 3 н/о н/о +36.9 +2.8 12 +34 +34 очень
жарко
1011.5 1005.7
05 19.03 СЗ 3 н/о н/о +37.2 +3.1 12 +34 +34 очень
жарко
1010.7 1004.9
06 19.03 З 6 н/о н/о +38.0 +3.7 12 +35 +35 очень
жарко
1010.0 1004.2
07 19.03 З 1 н/о н/о +37.3 +4.3 13 +34 +34 очень
жарко
1009.7 1003.9
08 19.03 ЮЗ 5 н/о н/о +36.9 +5.0 14 +34 +34 очень
жарко
1009.9 1004.1
09 19.03 Ю 6 н/о н/о +35.5 +5.8 16 +33 +33 жарко 1010.3 1004.5
10 19.03 Ю 5 н/о н/о +33.6 +6.8 19 +32 +32 жарко 1011.0 1005.2
11 19.03 Ю 4 н/о н/о +31.9 +6.9 21 +30 +30 жарко 1011.8 1006.0
12 19.03 ЮЗ 4 н/о н/о +30.6 +7.1 23 +29 +29 жарко 1012.2 1006.4
13 19.03 Ю 5 н/о н/о +29.9 +8.3 26 +29 +29 жарко 1012.2 1006.4
14 19.03 Ю 5 н/о н/о +29.8 +8.8 27 +29 +29 жарко 1012.1 1006.3
15 19.03 Ю 6 н/о н/о +29.3 +8.9 28 +29 +29 жарко 1011.8 1006.0
16 19.03 ЮЗ 4 н/о н/о +27.3 +8.2 30 +27 +27 жарко 1011.5 1005.7
17 19.03 В 3 н/о н/о +25.6 +7.2 31 +26 +26 жарко 1011.2 1005.4
18 19.03 Ю 3 н/о н/о +24.8 +8.3 35 +25 +25 комфорт 1011.1 1005.3
19 19.03 ЮВ 3 н/о н/о +23.0 +7.5 37 +24 +24 комфорт 1011.4 1005.6
20 19.03 Ю 3 н/о н/о +21.9 +8.1 41 +23 +23 комфорт 1011.8 1006.0
21 19.03 Ю 3 н/о н/о +22.4 +11.8 51 +25 +25 комфорт 1012.7 1006.9
22 19.03 Ю 4 н/о н/о +25.3 +13.2 47 +27 +27 жарко 1013.2 1007.4
23 19.03 Ю 6 н/о н/о +27.9 +13.1 40 +30 +30 жарко 1013.7 1007.9
00 20.03 Ю 7 н/о н/о +31.0 +11.9 31 +31 +31 жарко 1013.9 1008.1
01 20.03 ЮВ 7 н/о н/о +33.2 +10.5 25 +33 +33 жарко 1013.6 1007.8 +21.8
02 20.03 ЮВ 3 н/о н/о +35.0 +8.7 20 +33 +33 жарко 1013.0 1007.2
03 20.03 Ю 4 н/о н/о +35.6 +8.4 19 +34 +34 очень
жарко
1012.0 1006.2
04 20.03 С 3 н/о н/о +37.3 +9.0 18 +36 +36 очень
жарко
1010.9 1005.1
05 20.03 ЮЗ 4 н/о н/о +37.4 +8.2 17 +35 +35 очень
жарко
1010.0 1004.2
06 20.03 ЮЗ 5 н/о н/о +38.0 +7.8 16 +36 +36 очень
жарко
1009.6 1003.8
07 20.03 Ю 6 н/о н/о +38.3 +8.1 16 +36 +36 очень
жарко
1009.5 1003.7
08 20.03 Ю 7 н/о н/о +36.5 +7.5 17 +34 +34 очень
жарко
1009.9 1004.1
09 20.03 Ю 8 н/о н/о +34.8 +7.0 18 +33 +33 жарко 1010.4 1004.6
10 20.03 Ю 6 н/о н/о +33.3 +8.0 21 +32 +32 жарко 1010.9 1005.1
11 20.03 Ю 5 н/о н/о +31.8 +6.8 21 +30 +30 жарко 1011.5 1005.7
12 20.03 ЮЗ 6 н/о н/о +30.9 +6.0 21 +29 +29 жарко 1012.2 1006.4
13 20.03 Ю 6 н/о н/о +30.1 +2.4 17 +28 +28 жарко 1012.5 1006.7 +39.1
14 20.03 Ю 7 н/о н/о +29.1 +4.6 21 +27 +27 жарко 1012.1 1006.3
15 20.03 Ю 6 н/о н/о +28.1 +7.9 28 +28 +28 жарко 1011.7 1005.9
16 20.03 Ю 6 н/о н/о +27.0 +8.0 30 +27 +27 жарко 1011.0 1005.2
17 20.03 Ю 6 н/о н/о +26.0 +8.0 32 +26 +26 жарко 1010.6 1004.8
18 20.03 Ю 4 н/о н/о +24.7 +7.8 34 +25 +25 комфорт 1010.5 1004.7
19 20.03 Ю 3 н/о н/о +23.4 +7.5 36 +24 +24 комфорт 1010.7 1004.9
20 20.03 ЮВ 3 н/о н/о +21.5 +7.0 39 +22 +22 комфорт 1010.9 1005.1
21 20.03 Ю 2 н/о н/о +20.7 +6.6 40 +22 +22 комфорт 1011.3 1005.5
22 20.03 ЮВ 3 н/о н/о +23.3 +8.6 39 +25 +25 комфорт 1012.1 1006.3
23 20.03 Ю 4 н/о н/о +28.3 +10.5 33 +29 +29 жарко 1012.7 1006.9
00 21.03 Ю 3 н/о н/о +31.9 +10.0 26 +31 +31 жарко 1013.3 1007.5
01 21.03 З 3 н/о н/о +33.8 +8.4 21 +32 +32 жарко 1012.7 1006.9 +20.6
02 21.03 Ю 2 н/о н/о +35.2 +8.9 20 +34 +34 очень
жарко
1012.1 1006.3
03 21.03 ЮЗ 6 н/о н/о +35.7 +7.7 18 +34 +34 очень
жарко
1011.3 1005.5
04 21.03 З 6 н/о н/о +36.5 +5.7 15 +34 +34 очень
жарко
1010.4 1004.6
05 21.03 ЮЗ 5 н/о н/о +37.6 +3.4 12 +34 +34 очень
жарко
1009.6 1003.8
06 21.03 ЮЗ 6 н/о н/о +37.3 +1.9 11 +34 +34 очень
жарко
1009.2 1003.4
07 21.03 Ю 3 н/о н/о +36.6 +2.6 12 +33 +33 жарко 1009.2 1003.4
08 21.03 Ю 6 н/о н/о +36.4 +1.2 11 +33 +33 жарко 1009.5 1003.7
09 21.03 Ю 6 н/о н/о +34.7 +2.3 13 +32 +32 жарко 1009.6 1003.8
10 21.03 ЮЗ 5 н/о н/о +32.5 +3.5 16 +30 +30 жарко 1010.3 1004.5
11 21.03 ЮЗ 5 н/о н/о +30.4 +4.9 20 +29 +29 жарко 1011.2 1005.4
12 21.03 ЮЗ 5 н/о н/о +28.9 +3.7 20 +27 +27 жарко 1011.4 1005.6
13 21.03 Ю 5 н/о н/о +28.2 +5.7 24 +27 +27 жарко 1011.2 1005.4 +38.2
14 21.03 Ю 5 н/о н/о +28.5 +1.9 18 +26 +26 жарко 1011.0 1005.2
16 21.03 Ю 6 н/о н/о +26.3 +9.6 35 +27 +27 жарко 1009.9 1004.1
17 21.03 Ю 4 н/о н/о +24.9 +9.6 38 +26 +26 жарко 1009.5 1003.7

 

Местоположение метеостанции Марри (Южная Австралия, Австралия): широта -29.66 долгота 138.06 высота над уровнем моря 51 м.

В архиве по умолчанию представлена погода в Марри за последнюю неделю. Архивные данные за месяц целиком и за предыдущие месяцы, начиная с января 2011 года, Вы можете получить, выбрав интересующий диапазон дат из раскрывающегося списка и нажав кнопку "Ввод!".


*Определитесь, кто Вы:
робот инопланетянин человек

Внимание! Время в таблицах - всемирное. Для получения местного времени необходимо прибавить поправку, которая равна 9.5 ч.

Смотрите также архив погоды в соседних городах и на ближайших метеорологических станциях:

Погода в Ли-Крике (Южная Австралия, Австралия) (110 км)
Погода в Олимпик Дэм (Южная Австралия, Австралия) (146 км)
Погода на Аэродроме Вумера (Южная Австралия, Австралия) (205 км)
Погода в Мумбе (Южная Австралия, Австралия) (271 км)
Погода в Порт Огаста (Южная Австралия, Австралия) (320 км)
Погода в Кубер-Педи (Южная Австралия, Австралия) (332 км)
Погода в Однадатте (Южная Австралия, Австралия) (346 км)
Погода в Юнте (Южная Австралия, Австралия) (354 км)
Погода в Таркуле (Южная Австралия, Австралия) (355 км)
Погода в Уиолле (Южная Австралия, Австралия) (383 км)

Пояснения к столбцам:

Ветер - указаны скорость ветра в м/с - средняя за 10 мин, порывы в срок и между сроками (в фигурных скобках) и направление, откуда дует ветер: С - северный, СВ - северо-восточный, В - восточный, ЮВ - юго-восточный, Ю - южный, ЮЗ - юго-западный, З - западный, СЗ - северо-западный.
Видимость - горизонтальная дальность видимости в метрах или километрах. При видимости от 1 до 10 км при отсутствии осадков обычно наблюдается дымка, при ухудшении видимости до 1 км и менее - туман. В сухую погоду видимость может ухудшаться дымом, пылью или мглою.
Явления - указаны атмосферные явления, наблюдавшиеся в срок или в последний час перед сроком; фигурными скобками обозначены явления, наблюдавшиеся между сроками (за 1-3 часа до срока); квадратными скобками обозначены град или гололедные отложения с указанием их диаметра в мм.
Облачность - указаны через наклонную черту общая и нижняя облачность в баллах и высота нижней границы облаков в метрах; квадратными скобками обозначены формы облаков: Ci - перистые, Cs - перисто-слоистые, Cc - перисто-кучевые, Ac - высококучевые, As - высокослоистые, Sc - слоисто-кучевые, Ns - слоисто-дождевые, Cu - кучевые, Cb - кучево-дождевые. Подробнее классификацию облаков см. в Атласе облаков (PDF).
T - Температура воздуха - температура, измеренная на высоте 2 м над землей.
Td - Температура точки росы - температура, при понижении до которой содержащийся в воздухе водяной пар достигнет насыщения.
f - Относительная влажность воздуха - влажноcть воздуха, измеренная на высоте 2 м над землей.
Te - Эффективная температура - температура, которую ощущает одетый по сезону человек в тени. Характеристика душности погоды. При расчете учитывается влияние влажности воздуха и скорости ветра на теплоощущения человека.
Tes - Эффективная температура на солнце - температура, которую ощущает человек, с поправкой на солнечный нагрев. Характеристика знойности погоды. Зависит от высоты солнца над горизонтом, облачности и скорости ветра. Ночью, в пасмурную погоду, а также при ветре 12 м/с и более поправка равна нулю.
P - Атмосферное давление - приведенное к уровню моря атмосферное давление.
Po - Атмосферное давление - измеренное на уровне метеостанции атмосферное давление.
Tmin - Минимальная температура - минимум температуры воздуха на высоте 2 м над землей.
Tmax - Максимальная температура - максимум температуры воздуха на высоте 2 м над землей.
R - Количество осадков - Количество выпавших осадков за период времени, мм. При наведении курсора мыши на число - период времени, за который выпало указанное количество осадков.
R24 - Количество осадков - Количество выпавших осадков за 24 часа, мм.
S - Снежный покров - Высота снежного покрова, см. При наведении курсора мыши на число - состояние снежного покрова и степень покрытия местности в баллах.